Welcome to the New NWS' Forecast!
Most changes are behind the scenes, but click here for differences you might notice.

Regional Weather Roundup (RWR)

Issued by Gray - Portland, ME (GYX)

                            
133 
ASUS41 KGYX 160905
RWRGYX
WEATHER ROUNDUP FOR MAINE AND NEW HAMPSHIRE
NATIONAL WEATHER SERVICE GRAY ME
500 AM EDT THU AUG 16 2018

MEZ002-005-006-010-012-015-018-020-021-024-026-027-029-161000-
MAINE
  
CITY           SKY/WX    TMP DP  RH WIND       PRES   REMARKS
PORTLAND       CLOUDY    70  68  93 NW3       29.90R                  
SANFORD        FAIR      71  67  87 W6        29.92R                  
BAR HARBOR     FAIR      64  64 100 SW5       29.89R                  
WISCASSET      MOCLDY    66  66 100 CALM      29.91R                  
ROCKLAND       CLOUDY    66  66 100 CALM      29.90R FOG              
FRYEBURG       FAIR      68  67  96 SW3       29.92R                  
LEWISTONAUBURN CLOUDY    68  67  96 CALM      29.91R                  
AUGUSTA        MOCLDY    69  64  84 CALM      29.91R                  
WATERVILLE     FOG       64  64 100 CALM      29.87S VSB 3/4          
BANGOR         MOCLDY    67  65  93 VRB3      29.89S                  
GREENVILLE       N/A     63  62  97 NW7       29.91R                  
MILLINOCKET    MOCLDY    64  60  87 CALM      29.90S                  
HOULTON        FAIR      56  56 100 CALM      29.87R                  
PRESQUE ISLE   FAIR      54  53  97 S3        29.90R FOG              
FRENCHVILLE    FAIR      57  51  80 NW9       29.89R                  
CARIBOU        CLOUDY    59  53  80 CALM      29.88R                  
$$

NHZ002-005-008-009-011-012-014-161000-
NEW HAMPSHIRE
  
CITY           SKY/WX    TMP DP  RH WIND       PRES   REMARKS
PORTSMOUTH     MOCLDY    72  67  84 W6        29.90R                  
ROCHESTER      FAIR      71  68  90 VRB3      29.91R                  
MANCHESTER     NOT AVBL                                               
CONCORD        FAIR      68  66  93 CALM      29.94R                  
LACONIA        FAIR      69  65  86 SW6       29.94R                  
PLYMOUTH       FAIR      66  64  91 W3        29.94S                  
BERLIN         CLOUDY    64  63  96 CALM      29.96R                  
WHITEFIELD     CLOUDY    67  66  97 CALM      29.96R                  
JAFFREY        NOT AVBL                                               
LEBANON        CLOUDY    70  66  87 CALM      29.95R                  
MT WASHINGTON  FOG       52  52 100 W44G52      N/A  VSB 0            
$$

VTZ005-007-008-161000-
VERMONT
  
CITY           SKY/WX    TMP DP  RH WIND       PRES   REMARKS
ST JOHNSBURY     N/A     67  67 100 MISG      29.94R                  
MONTPELIER     CLOUDY    66  66 100 VRB3      30.02R                  
BURLINGTON     CLOUDY    68  65  90 SE3       29.96F                  
$$

MAZ007-012-024-CTZ003-RIZ002-NYZ038-NYZ072-161000-
SOUTHERN NEW ENGLAND AND NY
  
CITY           SKY/WX    TMP DP  RH WIND       PRES   REMARKS
BOSTON         FAIR      77  68  73 W10       29.93R                  
WORCESTER      FAIR      71  67  87 W14       29.99R                  
NANTUCKET      FAIR      72  70  93 W10       29.94S                  
PROVIDENCE     FAIR      74  68  81 W9        29.95R                  
HARTFORD       FAIR      72  68  87 S3        29.97R                  
ALBANY         FAIR      69  65  86 CALM      29.98R                  
NEW YORK CITY  MOCLDY    80  69  69 VRB3      29.99R                  
$$

ANZ081-ANZ082-ANZ150-NHZ014-MEZ023>029-161000-
COASTAL MARINE OBSERVATIONS
  
STATION/POSITION TIME  TEMP    WIND        PRES    WAVE
                       AIR SEA DIR/SP/G            HT/PER
                 (UTC) (F)     (DEG/KT/KT) (MB)    (FT/S)
MOUNT DESERT ROC 0900   63     210/  7/  7 1011.9R
MATINICUS ROCK   0800   62      30/  8/  8 1011.6R
ISLE OF SHOALS   0800   74     280/ 11/ 11 1011.7R
JEFFREYS LEDGE   0836      69                N/A     2/ 7
$$

.............KEY..............
   WCI - WIND CHILL
   TC  - TEMPERATURE IN CELSIUS
   VSB - VISIBILITY IN MILES
   HX  - HEAT INDEX
   FAIR- INDICATES FEW OR NO CLOUDS BELOW 12,000 FT, WITH NO 
         SIGNIFICANT WEATHER AND/OR OBSTRUCTIONS TO VISIBILITY.